Change the Weather History Date:

Sunday, December 8, 2013

  Actual Average (PABE) Record (PABE)
Temperature  
Mean Temperature 29 °F 12 °F  
Max Temperature 30 °F 19 °F 45 °F (1932)
Min Temperature 28 °F - -28 °F (1923)
Degree Days  
Heating Degree Days 36 53  
Month to date heating degree days 419  
Since 1 July heating degree days 4149  
Cooling Degree Days 0    
Month to date cooling degree days  
Year to date cooling degree days  
Moisture  
Dew Point 29 °F    
Average Humidity 97    
Maximum Humidity 100    
Minimum Humidity 92    
Precipitation  
Precipitation 0.00 in 0.03 in 0.60 in (1961)
Month to date precipitation 0.32  
Year to date precipitation 17.74  
Snow  
Snow 0.00 in 0.40 in 5.90 in (1943)
Month to date snowfall 3.2  
Since 1 July snowfall 21.1  
Snow Depth -    
Sea Level Pressure  
Sea Level Pressure 30.26 in    
Wind  
Wind Speed 3 mph (NE)    
Max Wind Speed 7 mph    
Max Gust Speed -    
Visibility 10 miles    
Events      
T = Trace of Precipitation, MM = Missing Value Source: NWS Daily Summary

Daily Weather History Graph

Daily Weather History Graph

Search for Another Location

Airport or City:

Trip Planner

Search our weather history database for the weather conditions in past years. The results will help you decide how hot, cold, wet, or windy it might be!

Date:

Astronomy

Dec. 08, 2013 Rise Set
Actual Time 10:41 AM AKST 4:33 PM AKST
Civil Twilight 9:42 AM AKST 5:32 PM AKST
Nautical Twilight 8:45 AM AKST 6:30 PM AKST
Astronomical Twilight 7:52 AM AKST 7:22 PM AKST
Moon 1:40 PM AKST (12/8) No Moon Set
Length of Visible Light 7h 49m
Length of Day
5h 51m
Waxing Crescent, 41% of the Moon is Illuminated
Dec 8
Waxing Crescent
Dec 9
First Quarter
Dec 17
Full
Dec 25
Last Quarter
Jan 1
New

Hourly Weather History & Observations

Time (AKST) Temp. Windchill Dew Point Humidity Pressure Visibility Wind Dir Wind Speed Gust Speed Precip Events Conditions
12:56 AM 28.9 °F - 28.9 °F 100% 30.36 in 10.0 mi Calm Calm - N/A   Clear
1:56 AM 30.0 °F 23.2 °F 28.9 °F 96% 30.35 in 10.0 mi NE 6.9 mph - N/A   Clear
3:56 AM 30.0 °F 24.1 °F 30.0 °F 100% 30.33 in 10.0 mi North 5.8 mph - N/A   Clear
4:56 AM 30.0 °F 26.5 °F 30.0 °F 100% 30.33 in 10.0 mi ENE 3.5 mph - N/A   Clear
5:56 AM 28.9 °F 25.2 °F 28.9 °F 100% 30.32 in 10.0 mi NE 3.5 mph - N/A   Clear
6:56 AM 30.0 °F 26.5 °F 28.9 °F 96% 30.31 in 10.0 mi East 3.5 mph - N/A   Partly Cloudy
7:56 AM 30.0 °F 25.2 °F 28.9 °F 96% 30.30 in 10.0 mi North 4.6 mph - N/A   Overcast
8:56 AM 30.0 °F 26.5 °F 28.9 °F 96% 30.29 in 10.0 mi NNE 3.5 mph - N/A   Clear
9:56 AM 28.9 °F 25.2 °F 28.9 °F 100% 30.29 in 10.0 mi East 3.5 mph - N/A   Partly Cloudy
10:56 AM 28.9 °F - 28.0 °F 96% 30.30 in 10.0 mi Calm Calm - N/A   Overcast
11:56 AM 28.9 °F - 28.0 °F 96% 30.29 in 10.0 mi Calm Calm - N/A   Clear
12:56 PM 28.9 °F 25.2 °F 28.0 °F 96% 30.27 in 10.0 mi North 3.5 mph - N/A   Clear
1:56 PM 28.9 °F 25.2 °F 28.9 °F 100% 30.26 in 10.0 mi NE 3.5 mph - N/A   Partly Cloudy
2:56 PM 30.0 °F 25.2 °F 30.0 °F 100% 30.24 in 10.0 mi NNE 4.6 mph - N/A   Partly Cloudy
3:56 PM 30.0 °F - 28.9 °F 96% 30.23 in 10.0 mi Calm Calm - N/A   Clear
4:56 PM 30.0 °F - 30.0 °F 100% 30.22 in 10.0 mi Calm Calm - N/A   Partly Cloudy
5:56 PM 30.0 °F 26.5 °F 28.9 °F 96% 30.21 in 8.0 mi NE 3.5 mph - N/A   Overcast
6:56 PM 30.0 °F 25.2 °F 28.9 °F 96% 30.21 in 10.0 mi North 4.6 mph - N/A   Overcast
7:56 PM 30.0 °F 25.2 °F 28.9 °F 96% 30.21 in 10.0 mi NNE 4.6 mph - N/A   Overcast
8:56 PM 28.9 °F 23.9 °F 28.0 °F 96% 30.21 in 10.0 mi NNE 4.6 mph - N/A   Overcast
9:56 PM 28.9 °F 23.9 °F 28.0 °F 96% 30.20 in 10.0 mi NE 4.6 mph - N/A   Overcast
10:56 PM 30.0 °F - 28.0 °F 92% 30.20 in 10.0 mi Calm Calm - N/A   Overcast
11:53 PM 30.2 °F - 28.4 °F 93% 30.20 in 10.0 mi Calm Calm - N/A   Overcast
11:56 PM 30.9 °F 27.5 °F 28.9 °F 92% 30.21 in 10.0 mi North 3.5 mph - N/A   Overcast